Satellite-Ground Cal/Val Region Overpasses Predictions

Prediction of Satellite NPP Overpassing Cal/Val Region: PacNW

Region Location: (Latitude: 10.00, Longitude: 139.50) to (Latitude: 22.70, Longitude: 165.60).

Table of predicted overpasses for the next 14.0 days since TLE Epoch: 5/15/2015
Interval Starting Time Starting Location Ending Time Ending Location
1 05/15/2015 14:50:35 ( 22.70, 163.51) 05/15/2015 14:54:11 ( 10.01, 160.50)
2 05/16/2015 03:41:10 ( 10.06, 145.66) 05/16/2015 03:44:45 ( 22.68, 142.67)
3 05/16/2015 14:34:43 ( 11.51, 165.59) 05/16/2015 14:35:08 ( 10.05, 165.26)
4 05/16/2015 16:13:03 ( 22.66, 142.88) 05/16/2015 16:16:38 ( 10.04, 139.88)
5 05/17/2015 03:22:08 ( 10.03, 150.42) 05/17/2015 03:25:43 ( 22.65, 147.43)
6 05/17/2015 15:54:01 ( 22.69, 147.64) 05/17/2015 15:57:37 ( 10.01, 144.63)
7 05/18/2015 03:03:07 ( 10.05, 155.17) 05/18/2015 03:06:42 ( 22.68, 152.18)
8 05/18/2015 15:34:59 ( 22.66, 152.39) 05/18/2015 15:38:34 ( 10.04, 149.39)
9 05/19/2015 02:44:04 ( 10.03, 159.93) 05/19/2015 02:47:39 ( 22.65, 156.94)
10 05/19/2015 15:15:57 ( 22.69, 157.15) 05/19/2015 15:19:33 ( 10.01, 154.14)
11 05/20/2015 02:25:03 ( 10.06, 164.68) 05/20/2015 02:28:38 ( 22.68, 161.68)
12 05/20/2015 14:56:55 ( 22.66, 161.89) 05/20/2015 15:00:30 ( 10.03, 158.90)
13 05/21/2015 03:47:30 ( 10.04, 144.06) 05/21/2015 03:51:05 ( 22.66, 141.07)
14 05/21/2015 14:39:07 ( 18.34, 165.59) 05/21/2015 14:41:28 ( 10.06, 163.66)
15 05/21/2015 16:19:23 ( 22.67, 141.28) 05/21/2015 16:21:28 ( 15.34, 139.51)
16 05/22/2015 03:28:28 ( 10.02, 148.82) 05/22/2015 03:32:04 ( 22.70, 145.81)
17 05/22/2015 16:00:20 ( 22.70, 146.04) 05/22/2015 16:03:56 ( 10.01, 143.03)
18 05/23/2015 03:09:26 ( 10.05, 153.57) 05/23/2015 03:13:01 ( 22.67, 150.57)
19 05/23/2015 15:41:19 ( 22.66, 150.78) 05/23/2015 15:44:54 ( 10.03, 147.79)
20 05/24/2015 02:50:24 ( 10.03, 158.33) 05/24/2015 02:53:59 ( 22.65, 155.33)
21 05/24/2015 15:22:17 ( 22.68, 155.54) 05/24/2015 15:25:51 ( 10.05, 152.55)
22 05/25/2015 02:31:21 ( 10.01, 163.09) 05/25/2015 02:34:57 ( 22.69, 160.08)
23 05/25/2015 15:03:14 ( 22.70, 160.30) 05/25/2015 15:06:50 ( 10.01, 157.30)
24 05/26/2015 02:15:03 ( 19.63, 165.59) 05/26/2015 02:15:55 ( 22.68, 164.84)
25 05/26/2015 03:53:49 ( 10.00, 142.47) 05/26/2015 03:57:22 ( 22.51, 139.51)
26 05/26/2015 14:44:13 ( 22.65, 165.05) 05/26/2015 14:47:48 ( 10.03, 162.06)
27 05/26/2015 16:25:43 ( 22.65, 139.67) 05/26/2015 16:25:54 ( 22.00, 139.51)
28 05/27/2015 03:34:47 ( 10.04, 147.22) 05/27/2015 03:38:22 ( 22.67, 144.22)
29 05/27/2015 16:06:40 ( 22.66, 144.43) 05/27/2015 16:10:15 ( 10.04, 141.44)
30 05/28/2015 03:15:45 ( 10.03, 151.98) 05/28/2015 03:19:20 ( 22.65, 148.98)
31 05/28/2015 15:47:38 ( 22.68, 149.19) 05/28/2015 15:51:13 ( 10.05, 146.20)


NCC Satellite Cal/Val Overpasses Prediction Service
